User: anonymous   Login
Location: Unspecified
(0.0000°N, 0.0000°E)
Time: 19:31:36
(UTC+00:00)
Language:

STARLINK-2486 - Orbit

View from above orbital plane
View from above orbital plane
View from above satellite
View from above satellite

Ground track
Ground track

The orbit is defined by the following mean orbital elements,

1 48143U          26145.10205009 +.00000000 +00000-0 +12637-2 0 00009
2 48143  53.1567 104.3635 0005858  46.4014 313.7475 15.36939831    04
Epoch (UTC): 25 May 2026 02:26:57
Eccentricity: 0.0005858
inclination: 53.1567°
perigee height: 451 km
apogee height: 459 km
right ascension of ascending node: 104.3635°
argument of perigee: 46.4014°
revolutions per day: 15.36939831
mean anomaly at epoch: 313.7475°

The dashed part of the orbit path shows where the satellite is in the earth's shadow,  

DLR